WD7CGF Weather Reports


Display with metric or nautical units.
time (UTC)temp
F
wind
direction
speed
MPH
gust
MPH
rain 1hr
in
rain 24hr
in
rain mn
in
humidity
%
barometer
mb
20260504201845 83 117 2.0 4.0 0.00 0.00 0.00 30 1007.8
20260504200838 83 164 3.0 6.0 0.00 0.00 0.00 33 1007.7
20260504195827 82 87 2.0 5.0 0.00 0.00 0.00 34 1008.0
20260504194839 81 81 1.0 4.0 0.00 0.00 0.00 33 1008.0
20260504193830 80 48 2.0 4.0 0.00 0.00 0.00 36 1008.2
20260504192840 80 265 1.0 4.0 0.00 0.00 0.00 41 1008.4
20260504191833 79 137 1.0 2.0 0.00 0.00 0.00 41 1008.4
20260504190822 78 112 1.0 4.0 0.00 0.00 0.00 42 1008.5
20260504185836 78 241 1.0 3.0 0.00 0.00 0.00 44 1008.9
20260504184833 77 126 2.0 4.0 0.00 0.00 0.00 43 1008.9
20260504183845 76 117 1.0 4.0 0.00 0.00 0.00 45 1008.1
20260504182833 75 209 1.0 4.0 0.00 0.00 0.00 45 1008.3
20260504181844 74 230 1.0 3.0 0.00 0.00 0.00 44 1008.3
20260504180835 73 24 1.0 5.0 0.00 0.00 0.00 43 1009.0
20260504175843 73 14 0.0 3.0 0.00 0.00 0.00 47 1008.3
20260504174834 71 258 1.0 3.0 0.00 0.00 0.00 48 1008.3
20260504173825 71 45 2.0 3.0 0.00 0.00 0.00 47 1008.5
20260504172837 70 255 0.0 3.0 0.00 0.00 0.00 48 1008.7
20260504171828 69 126 0.0 2.0 0.00 0.00 0.00 50 1008.7
20260504170840 68 59 1.0 2.0 0.00 0.00 0.00 48 1009.5
20260504150838 60 123 0.0 0.0 0.00 0.00 0.00 63 1010.0
20260504140829 49 5 0.0 0.0 0.00 0.00 0.00 82 1009.6
20260504081835 51 53 0.0 0.0 0.00 0.00 0.00 77 1009.2
20260504080848 52 54 0.0 1.0 0.00 0.00 0.00 76 1009.3
20260504045839 62 334 0.0 1.0 0.00 0.00 0.00 58 1009.0
20260504044829 63 360 0.0 1.0 0.00 0.00 0.00 60 1009.0
20260504043856 64 303 0.0 1.0 0.00 0.00 0.00 60 1008.8
20260504042838 65 311 0.0 2.0 0.00 0.00 0.00 58 1008.5
20260504041844 65 294 0.0 2.0 0.00 0.00 0.00 55 1008.5
20260504040832 66 5 0.0 1.0 0.00 0.00 0.00 54 1008.4
20260504035843 67 5 0.0 3.0 0.00 0.00 0.00 53 1008.3
20260504034836 69 5 0.0 0.0 0.00 0.00 0.00 52 1008.3
20260504033848 70 329 0.0 0.0 0.00 0.00 0.00 50 1008.2
20260504032835 70 355 0.0 0.0 0.00 0.00 0.00 48 1007.8
20260504031829 72 204 0.0 0.0 0.00 0.00 0.00 47 1007.8
20260504030841 73 194 0.0 0.0 0.00 0.00 0.00 46 1007.9
20260504025833 74 194 0.0 0.0 0.00 0.00 0.00 43 1007.7
20260504024845 75 143 0.0 0.0 0.00 0.00 0.00 37 1007.7
20260504023835 76 143 0.0 0.0 0.00 0.00 0.00 36 1007.4
20260504022847 77 111 0.0 0.0 0.00 0.00 0.00 34 1007.3
20260504021835 78 111 0.0 0.0 0.00 0.00 0.00 32 1007.3
20260504020828 79 81 0.0 0.0 0.00 0.00 0.00 32 1007.0
20260504015843 79 97 0.0 3.0 0.00 0.00 0.00 32 1007.0
20260504014830 80 94 0.0 3.0 0.00 0.00 0.00 32 1007.0
20260504013842 80 9 2.0 3.0 0.00 0.00 0.00 31 1006.9
20260504012834 81 152 1.0 3.0 0.00 0.00 0.00 31 1007.0
20260504011826 81 163 1.0 5.0 0.00 0.00 0.00 28 1007.0
20260504010841 81 272 1.0 5.0 0.00 0.00 0.00 28 1007.5
20260504005833 81 76 2.0 3.0 0.00 0.00 0.00 30 1007.7
20260504004847 81 183 1.0 3.0 0.00 0.00 0.00 29 1007.7
20260504003842 82 255 2.0 3.0 0.00 0.00 0.00 28 1007.9
20260504002831 82 86 1.0 5.0 0.00 0.00 0.00 28 1007.9
20260504001839 82 262 1.0 5.0 0.00 0.00 0.00 30 1007.9
20260504000848 82 271 4.0 6.0 0.00 0.00 0.00 26 1008.2
20260503235834 82 202 1.0 6.0 0.00 0.00 0.00 28 1008.3
20260503234845 83 196 3.0 6.0 0.00 0.00 0.00 27 1008.3
20260503233834 83 146 2.0 7.0 0.00 0.00 0.00 26 1008.3
20260503232847 83 86 2.0 4.0 0.00 0.00 0.00 27 1008.7
20260503231836 83 108 2.0 4.0 0.00 0.00 0.00 26 1008.7
20260503230832 83 271 1.0 4.0 0.00 0.00 0.00 29 1008.8
20260503225843 84 179 2.0 5.0 0.00 0.00 0.00 26 1009.0
20260503224833 84 196 3.0 5.0 0.00 0.00 0.00 28 1009.0
20260503223847 84 34 0.0 3.0 0.00 0.00 0.00 27 1009.3
20260503222837 84 317 0.0 3.0 0.00 0.00 0.00 29 1009.5
20260503221847 84 238 1.0 3.0 0.00 0.00 0.00 28 1009.5
20260503220837 83 286 2.0 4.0 0.00 0.00 0.00 26 1010.7
20260503215845 83 78 2.0 4.0 0.00 0.00 0.00 30 1010.0
20260503214839 82 25 2.0 4.0 0.00 0.00 0.00 28 1010.0
20260503213829 82 258 1.0 5.0 0.00 0.00 0.00 26 1011.1
20260503212840 83 15 2.0 4.0 0.00 0.00 0.00 31 1011.2
20260503211831 82 32 2.0 5.0 0.00 0.00 0.00 26 1011.2
20260503210845 83 146 2.0 11.0 0.00 0.00 0.00 28 1010.6
20260503205834 82 213 0.0 4.0 0.00 0.00 0.00 32 1011.7
20260503204845 82 119 1.0 6.0 0.00 0.00 0.00 32 1011.7
20260503203834 82 44 1.0 5.0 0.00 0.00 0.00 29 1011.1
20260503202842 81 350 0.0 3.0 0.00 0.00 0.00 28 1012.2